Regional Weather Roundup
Issued by NWS State College, PA

Home | Current Version | Previous Version | Text Only | Print | Product List | Glossary Off
Versions: 1 2 3 4 5 6 7 8 9 10 11 12 13 14 15 16 17 18 19 20 21 22 23 24 25 26 27 28 29 30 31 32 33 34 35 36 37 38 39 40 41 42 43 44 45 46 47 48 49 50

000
ASUS41 KCTP 031310
RWRCTP

REGIONAL WEATHER ROUNDUP
NATIONAL WEATHER SERVICE STATE COLLEGE PA
900 AM EDT MON AUG 03 2015

Note: "fair" indicates few or no clouds below 12,000 feet with no
significant weather and/or obstructions to visibility.

* = STATION THAT DOES NOT REPORT PRECIPITATION /E.G. RAIN...SNOW...ETC/
    THUNDER OR FOG.

PAZ002>004-007>009-013>016-020>023-029>032-031400-
WESTERN PENNSYLVANIA

CITY           SKY/WX    TMP DP  RH WIND       PRES   REMARKS
ERIE           PTSUNNY   71  57  61 SW10      29.78R
MEADVILLE      CLOUDY    66  56  70 SW9       29.81R
FRANKLIN*      CLOUDY    66  55  68 S12       29.82R
NEW CASTLE     FAIR      68  61  78 CALM      29.83R
BEAVER COUNTY  SUNNY     66  57  72 SW6       29.82
BUTLER*        CLOUDY    66  59  77 SW6       29.82R
PITTSBURGH INT CLOUDY    69  59  70 S12       29.80F
PITTSBURGH     CLOUDY    66  57  72 S15       29.81F
INDIANA*       SUNNY     70  63  78 SW13G18   29.86F
LATROBE        CLOUDY    72  63  73 SW14      29.88F
WASHINGTON CO* NOT AVBL
$$

PAZ004>006-010>012-017>019-024>028-033>037-041-042-045-046-049>053-031400-
CENTRAL PENNSYLVANIA

CITY           SKY/WX    TMP DP  RH WIND       PRES   REMARKS
BRADFORD       CLOUDY    65  56  72 SW8       29.81F
DUBOIS         PTSUNNY   68  59  73 VRB7      29.82F
CLEARFIELD     PTSUNNY   69  60  73 SW12      29.84F
JOHNSTOWN      MOSUNNY   69  58  67 SW12      29.90F
ALTOONA        SUNNY     75  60  59 S9        29.88F
STATE COLLEGE  SUNNY     72  63  73 SW6       29.84F
WILLIAMSPORT   SUNNY     75  62  64 E3        29.80F
SELINSGROVE    SUNNY     75  63  66 VRB5      29.84F
FT INDIANTOWN  MOSUNNY   72  64  74 VRB2      29.86
CAPITAL CITY   SUNNY     74  61  63 VRB3      29.85F
HARRISBURG     MOSUNNY   76  62  62 S6        29.85F
YORK           SUNNY     74  64  71 CALM      29.87F
$$

PAZ038>040-043-044-047-048-054-055-060>062-067>071-031400-
EASTERN PENNSYLVANIA

CITY           SKY/WX    TMP DP  RH WIND       PRES   REMARKS
SCRANTON       SUNNY     76  61  59 VRB6      29.83F
MOUNT POCONO   SUNNY     72  59  63 W7        29.89F
ALLENTOWN      SUNNY     75  63  66 NW5       29.86R
QUAKERTOWN*    SUNNY     73  63  68 SW8       29.88R
READING        PTSUNNY   74  62  66 S3        29.85S
LANCASTER      PTSUNNY   73  62  68 W3        29.87S
COATESVILLE    SUNNY     73  64  73 SW7       29.90R
POTTSTOWN      SUNNY     75  64  68 SW7       29.88F
BLUE BELL      SUNNY     79  66  65 SW7       29.86F
DOYLESTOWN     SUNNY     74  63  68 SW7       29.86F
WILLOW GROVE   NOT AVBL
NORTH PHILA    SUNNY     82  62  50 SW9       29.87F
PHILADELPHIA   MOSUNNY   79  65  62 SW13      29.87S
$$


USA.gov is the U.S. government's official web portal to all federal, state and local government web resources and services.